Date String (YYYY-MM-DD hh:mm:ss) UTC,Instrument flags,absolute air pressure of the measurement (hPa),sample flow rate (lpm),inlet stack bypass flow (lpm),air temperature of the measurement (°C),ambient temperature measured by the external sensor (°C),aerosol sample conditioner tube jacket temperature (°C),OPC LED temperature (°C),internal box temperature (°C),relative humidity of the measurement (%),span deviation,mass concentration of particles derived from Lorenz-Mie calculation of OPC scattering (μg/m³),mass concentration of particles derived from Lorenz-Mie calculation of OPC scattering (μg/m³),mass concentration of particles derived from Lorenz-Mie calculation of OPC scattering (μg/m³)
DateTimeUTC,F1_M11,P_M11,Q1_M11,Q2_M11,T1_M11,T2_M11,T3_M11,T4_M11,T5_M11,U1_M11,ZSPAN_M11,X0_M11,X2_M11,X1_M11
2023-07-20 21:00:00,SystemResetWarning,0837.2,5.00,000.00,032.0,025.2,000.0,039.1,031.4,32.2,-002.0,0008.96,0004.57,0004.11
2023-07-20 21:01:00,SystemResetWarning,0837.2,5.01,000.00,031.9,025.1,000.0,039.1,031.1,32.2,-002.3,0009.10,0004.68,0004.21
2023-07-20 21:02:00,SystemResetWarning,0837.1,5.02,000.00,031.7,025.4,000.0,039.2,031.0,32.7,-002.6,0009.44,0004.81,0004.30
2023-07-20 21:03:00,SystemResetWarning,0837.1,4.98,000.00,031.6,025.9,000.0,039.3,031.1,33.5,-002.4,0009.73,0004.97,0004.40
2023-07-20 21:04:00,SystemResetWarning,0837.1,5.00,000.00,031.5,026.4,000.0,039.3,031.2,34.7,-002.3,0010.25,0005.13,0004.48
2023-07-20 21:05:00,SystemResetWarning,0837.1,5.02,000.00,031.5,026.8,000.0,039.4,031.3,34.6,-002.3,0010.50,0005.24,0004.56
2023-07-20 21:06:00,SystemResetWarning,0837.2,4.99,000.00,031.5,027.2,000.0,039.4,031.4,33.6,-002.5,0011.28,0005.34,0004.63
2023-07-20 21:07:00,SystemResetWarning,0837.2,4.99,000.00,031.4,027.5,000.0,039.4,031.5,33.5,-002.4,0011.67,0005.44,0004.68
2023-07-20 21:08:00,SystemResetWarning,0837.2,5.00,000.00,031.4,027.7,000.0,039.4,031.5,33.9,-002.5,0012.83,0005.55,0004.73
2023-07-20 21:09:00,SystemResetWarning,0837.2,5.00,000.00,031.4,028.0,000.0,039.4,031.6,33.6,-002.5,0013.28,0005.60,0004.74
2023-07-20 21:10:00,SystemResetWarning,0837.3,5.01,000.00,031.4,028.1,000.0,039.4,031.7,33.8,-002.6,0013.16,0005.59,0004.75
2023-07-20 21:11:00,SystemResetWarning,0837.3,5.00,000.00,031.4,028.2,000.0,039.4,031.7,33.8,-002.7,0012.98,0005.60,0004.79
2023-07-20 21:12:00,SystemResetWarning,0837.4,4.98,000.00,031.4,027.0,000.0,039.3,031.6,33.7,-002.5,0013.12,0005.61,0004.80
2023-07-20 21:13:00,SystemResetWarning,0837.5,5.01,000.00,031.3,025.5,000.0,039.1,031.3,33.3,-002.0,0013.03,0005.63,0004.82
2023-07-20 21:14:00,SystemResetWarning,0837.5,5.01,000.00,031.2,025.1,000.0,039.0,031.1,33.8,-001.5,0013.31,0005.65,0004.85
2023-07-20 21:15:00,SystemResetWarning,0837.4,5.00,000.00,031.0,025.3,000.0,039.1,030.9,34.7,-001.5,0013.52,0005.63,0004.88
2023-07-20 21:16:00,SystemResetWarning,0837.3,5.00,000.00,030.9,025.7,000.0,039.1,031.0,35.3,-001.4,0013.19,0005.60,0004.90
2023-07-20 21:17:00,SystemResetWarning,0837.2,5.02,000.00,031.1,026.2,000.0,039.1,031.2,35.2,-001.0,0012.75,0005.60,0004.91
2023-07-20 21:18:00,SystemResetWarning,0837.2,4.96,000.00,031.3,026.6,000.0,039.1,031.4,34.9,-000.9,0013.43,0005.62,0004.95
2023-07-20 21:19:00,SystemResetWarning,0837.1,5.04,000.00,031.5,027.0,000.0,039.1,031.5,34.4,-000.4,0012.37,0005.62,0005.00
2023-07-20 21:20:00,SystemResetWarning,0836.8,4.98,000.00,031.6,027.3,000.0,039.2,031.6,33.5,-000.3,0013.04,0005.68,0005.07
2023-07-20 21:21:00,SystemResetWarning,0836.6,4.99,000.00,031.7,027.6,000.0,039.2,031.6,33.2,-000.4,0013.83,0005.72,0005.12
2023-07-20 21:22:00,SystemResetWarning,0836.5,5.01,000.00,031.7,027.9,000.0,039.3,031.7,32.9,-000.3,0014.40,0005.78,0005.18
2023-07-20 21:23:00,SystemResetWarning,0836.4,5.00,000.00,031.8,028.1,000.0,039.3,031.7,34.1,-000.3,0015.12,0005.87,0005.23
2023-07-20 21:24:00,SystemResetWarning,0836.4,5.01,000.00,031.8,028.2,000.0,039.4,031.8,35.2,-000.2,0015.06,0005.87,0005.26
2023-07-20 21:25:00,SystemResetWarning,0836.6,4.98,000.00,032.0,027.5,000.0,039.4,031.9,33.0,-000.7,0014.98,0005.86,0005.29
2023-07-20 21:26:00,SystemResetWarning,0836.7,5.00,000.00,032.1,026.2,000.0,039.3,031.7,33.0,-001.1,0015.04,0005.86,0005.33
2023-07-20 21:27:00,SystemResetWarning,0836.9,5.01,000.00,032.1,025.9,000.0,039.3,031.5,34.2,-001.1,0014.57,0005.91,0005.39
2023-07-20 21:28:00,SystemResetWarning,0837.1,4.99,000.00,031.9,026.1,000.0,039.4,031.4,34.7,-001.0,0014.40,0005.94,0005.44
2023-07-20 21:29:00,SystemResetWarning,0837.2,5.00,000.00,031.8,026.5,000.0,039.5,031.4,34.2,-001.1,0014.11,0005.93,0005.43
2023-07-20 21:30:00,SystemResetWarning,0837.2,4.99,000.00,031.8,026.9,000.0,039.5,031.5,35.7,-001.7,0014.59,0005.91,0005.40
2023-07-20 21:31:00,SystemResetWarning,0837.2,5.02,000.00,032.0,027.2,000.0,039.6,031.7,36.5,-002.1,0014.13,0005.91,0005.37
2023-07-20 21:32:00,SystemResetWarning,0837.1,5.00,000.00,032.2,027.5,000.0,039.6,031.9,37.7,-001.9,0012.84,0005.87,0005.32
2023-07-20 21:33:00,SystemResetWarning,0837.2,4.99,000.00,032.5,027.8,000.0,039.7,032.0,37.7,-001.7,0012.45,0005.82,0005.27
2023-07-20 21:34:00,SystemResetWarning,0837.2,4.99,000.00,032.9,028.0,000.0,039.7,032.2,37.1,-001.5,0011.86,0005.82,0005.26
2023-07-20 21:35:00,SystemResetWarning,0837.2,5.00,000.00,033.3,028.1,000.0,039.8,032.4,36.2,-001.7,0012.39,0005.90,0005.29
2023-07-20 21:36:00,SystemResetWarning,0837.1,5.01,000.00,033.8,026.9,000.0,039.8,032.4,35.1,-001.4,0012.67,0005.93,0005.27
2023-07-20 21:37:00,SystemResetWarning,0836.8,4.99,000.00,034.1,025.5,000.0,039.8,032.3,33.7,-000.8,0012.57,0005.88,0005.21
2023-07-20 21:38:00,SystemResetWarning,0836.5,4.98,000.00,034.2,025.2,000.0,039.9,032.1,33.5,-001.1,0013.86,0005.85,0005.14
2023-07-20 21:39:00,SystemResetWarning,0836.3,5.01,000.00,034.1,025.4,000.0,040.1,031.9,34.0,-001.3,0014.05,0005.80,0005.09
2023-07-20 21:40:00,SystemResetWarning,0836.1,5.01,000.00,034.0,025.9,000.0,040.3,031.8,34.8,-001.2,0013.30,0005.79,0005.07
2023-07-20 21:41:00,SystemResetWarning,0836.1,5.00,000.00,034.0,026.3,000.0,040.5,031.9,33.8,-000.8,0012.83,0005.83,0005.08
2023-07-20 21:42:00,SystemResetWarning,0836.2,4.98,000.00,034.0,026.8,000.0,040.6,032.0,34.6,-000.7,0013.00,0005.83,0005.10
2023-07-20 21:43:00,SystemResetWarning,0836.2,5.00,000.00,033.9,027.1,000.0,040.8,032.1,35.1,-001.0,0013.81,0005.87,0005.14
2023-07-20 21:44:00,SystemResetWarning,0836.2,5.02,000.00,034.0,027.5,000.0,040.9,032.2,36.1,-001.2,0013.74,0006.05,0005.29
2023-07-20 21:45:00,SystemResetWarning,0836.2,4.99,000.00,034.2,027.7,000.0,040.9,032.3,33.3,-001.4,0013.92,0006.24,0005.46
2023-07-20 21:46:00,SystemResetWarning,0836.2,4.99,000.00,034.3,028.0,000.0,041.0,032.4,32.7,-001.3,0013.84,0006.36,0005.59
2023-07-20 21:47:00,SystemResetWarning,0836.2,5.01,000.00,034.3,028.2,000.0,041.1,032.5,34.5,-001.4,0013.63,0006.56,0005.78
2023-07-20 21:48:00,SystemResetWarning,0836.2,4.98,000.00,034.3,028.4,000.0,041.2,032.5,34.9,-001.8,0013.56,0006.81,0006.01
2023-07-20 21:49:00,SystemResetWarning,0836.1,5.01,000.00,034.4,028.3,000.0,041.3,032.6,35.2,-001.5,0012.79,0007.03,0006.19
2023-07-20 21:50:00,SystemResetWarning,0836.2,5.00,000.00,034.6,026.8,000.0,041.2,032.6,34.5,-001.6,0012.58,0007.16,0006.32
2023-07-20 21:51:00,SystemResetWarning,0836.2,4.99,000.00,034.7,025.5,000.0,041.1,032.4,34.0,-001.5,0012.87,0007.29,0006.42
2023-07-20 21:52:00,SystemResetWarning,0836.2,5.02,000.00,034.7,025.2,000.0,041.1,032.1,34.3,-001.6,0013.52,0007.40,0006.54
2023-07-20 21:53:00,SystemResetWarning,0836.2,4.97,000.00,034.4,025.5,000.0,041.2,031.9,35.1,-001.6,0014.30,0007.61,0006.74
2023-07-20 21:54:00,SystemResetWarning,0836.3,5.02,000.00,034.3,025.9,000.0,041.3,032.0,35.5,-001.6,0014.50,0007.80,0006.91
2023-07-20 21:55:00,SystemResetWarning,0836.4,5.00,000.00,034.4,026.4,000.0,041.4,032.2,35.1,-001.3,0014.75,0007.93,0007.01
2023-07-20 21:56:00,SystemResetWarning,0836.6,4.98,000.00,034.5,026.8,000.0,041.4,032.4,34.7,-001.2,0014.78,0007.93,0007.01
2023-07-20 21:57:00,SystemResetWarning,0836.7,4.99,000.00,034.6,027.2,000.0,041.5,032.4,34.9,-001.1,0015.09,0007.93,0007.02
2023-07-20 21:58:00,SystemResetWarning,0836.7,5.01,000.00,034.6,027.5,000.0,041.6,032.5,34.9,-001.4,0014.86,0007.75,0006.88
2023-07-20 21:59:00,SystemResetWarning,0836.8,4.99,000.00,034.6,027.8,000.0,041.6,032.5,35.1,-001.3,0014.77,0007.62,0006.77
